Location: Arroyo Grande
(40.2671°N, 4.2512°W)
Time: 19:33:56
(UTC+00:00)

Centaur D AC-29 - Pass Details

Date: 03 February 2023
Orbit: 572 x 36260 km, 26.7° (Epoch: 21 March)

Event Time Altitude Azimuth Distance (km) Brightness Sun altitude
Rises 17:51:18 0° 263° (W) 6,482 8.4 -3.3°
Reaches altitude 10° 17:58:18 10° 246° (WSW) 3,365 6.7 -4.6°
Maximum altitude 18:02:19 16° 207° (SSW) 1,976 4.3 -5.3°
Drops below altitude 10° 18:04:51 10° 164° (SSE) 1,982 3.7 -5.7°
Sets 18:07:17 0° 137° (SE) 2,755 4.1 -6.2°
